Regional Weather Roundup
Issued by NWS Wakefield, VA

Home | Current Version | Previous Version | Text Only | Print | Product List | Glossary On
Versions: 1 2 3 4 5 6 7 8 9 10 11 12 13 14 15 16 17 18 19 20 21 22 23 24 25 26 27 28 29 30 31 32 33 34 35 36 37 38 39 40 41 42 43 44 45 46 47 48 49 50
000
ASUS41 KAKQ 100014
RWRAKQ

REGIONAL WEATHER ROUNDUP
NATIONAL WEATHER SERVICE WAKEFIELD VA
700 PM EST TUE FEB 09 2016

Note: "fair" indicates few or no clouds below 12,000 feet with no
significant weather and/or obstructions to visibility. * = Denotes
station may not report precipitation (e.g., rain,snow,etc.),
thunder or fog.

VAZ042-051-052>054-056-100100-
NORTHERN VIRGINIA

CITY           SKY/WX    TMP DP  RH WIND       PRES   REMARKS
WASH NATIONAL  FAIR      35  27  72 N14       29.65R
DULLES         MOCLDY    34  22  61 NW15      29.64R WCI  24
FORT BELVOIR   MOCLDY    36  25  65 VRB3      29.64R
QUANTICO       CLOUDY    38  30  73 CALM      29.68R
FREDERICKSBRG* LGT RAIN  34  34 100 SE5       29.66R
STAFFORD*      CLOUDY    33  32  94 CALM      29.69R
WARRENTON      CLOUDY    35  32  88 N3        29.64R
CULPEPER*      CLOUDY    34  33  97 CALM      29.65R
MANASSAS*      CLOUDY    34  28  80 N7        29.64R
LEESBURG*      CLOUDY    36  28  75 NW10G22   29.66R
WINCHESTER     CLOUDY    32  19  59 W15       29.65R WCI  22
FRONT ROYAL*   CLOUDY    32  18  55 W9G16     29.65R
LURAY*         CLOUDY    32  19  59 W10G16    29.65R WCI  24
$$

VAZ048-049-060>072-079>083-100100-
CENTRAL AND SOUTH CENTRAL VIRGINIA

CITY           SKY/WX    TMP DP  RH WIND       PRES   REMARKS
RICHMOND       CLOUDY    38  21  50 W12       29.66R
CHESTERFIELD*  FAIR     N/A N/A N/A W9        29.68R
PETERSBURG*    FAIR      39  14  36 W10G23    29.69R
HANOVER        CLOUDY    39  21  48 W9        29.67R
TAPPAHANNOCK*  LGT RAIN  35  35  99 NW3       29.67R
QUINTON*       CLOUDY    40  21  47 W9G17     29.65R
CHARLOTTSVILLE CLOUDY    37  15  40 NW13G21   29.64R
GORDONSVILLE*  CLOUDY    38  20  47 SW7       29.64R
ORANGE*        CLOUDY    37  25  60 W7        29.65R
LOUISA*        CLOUDY    39  19  45 W6        29.63R
BUMPASS*       CLOUDY    38  23  53 W7        29.64R
FARMVILLE*     FAIR      35  15  44 W5        29.68R
CREWE*         FAIR      34  17  49 W6        29.69R
FORT PICKETT*  FAIR      34  15  45 W10G18    29.69R
CHASE CITY*    CLOUDY    35  14  41 W6        29.71R
CLARKSVILLE*   CLOUDY    36  18  48 W8G16     29.72R
SOUTH HILL*    CLOUDY    36  17  47 W6        29.76R
LAWRENCEVILLE* CLOUDY    37  18  46 W3        29.70R
EMPORIA*       CLOUDY    37  21  52 SW9       29.72R
$$

VAZ088>098-100100-
SOUTHEAST VIRGINIA

CITY           SKY/WX    TMP DP  RH WIND       PRES   REMARKS
NORFOLK        CLOUDY    44  25  47 W12       29.65R
VIRGINIA BEACH CLOUDY    47  28  47 SW9       29.65R
NORFOLK NAVAL  CLOUDY    44  25  47 W15       29.67R
WEST POINT*    CLOUDY    37  34  88 W3        29.67R
SALUDA*        CLOUDY    36  34  92 W3        29.66R
NEWPORT NEWS   MOCLDY    41  25  53 W14       29.66R
LANGLEY AFB    CLOUDY    42  27  56 W12       29.64R
FORT EUSTIS    MOCLDY    41  22  47 W8        29.64R
WILLIAMSBURG*  MOCLDY    43  27  52 W5G18     29.67R
HR EXEC AP*    CLOUDY    43  27  52 W6        29.68R
FRANKLIN*      CLOUDY    40  23  49 W14G21    29.69R
US460-WAKEFLD  CLOUDY    42  20  41 W9        29.67R
$$

VAZ020-022-025-037-045-100100-
WEST CENTRAL AND SOUTHWEST VIRGINIA

CITY           SKY/WX    TMP DP  RH WIND       PRES   REMARKS
STAUNTON*      CLOUDY    34  17  49 W6        29.68R
WAYNESBORO*    MOCLDY    28  13  53 SW6       29.65R
HOT SPRINGS VA FLURRIES  16  12  84 W20G29    29.53R WCI  -1
LYNCHBURG      CLOUDY    29  15  56 W8G16     29.72R
DANVILLE       CLOUDY    34  15  46 W9        29.75R
SOUTH BOSTON*  CLOUDY    35  13  40 W5        29.74R
MARTINSVILLE   CLOUDY    27  10  49 NW7       29.79R
ROANOKE        CLOUDY    26  10  50 W16G28    29.75R WCI  14
BLACKSBURG     FLURRIES  22  15  75 NW12G18   29.75R WCI  10
DUBLIN*        FLURRIES  23  15  70 W10G21    29.74R WCI  12
MARION*        LGT SNOW  20  15  79 W10       29.75R WCI   9
HILLSVILLE*    CLOUDY    19  11  74 NW15G21   29.68R WCI   4
RICHLANDS*     FLURRIES  18  11  76 NW6       29.75R
WISE*          CLOUDY    19  10  68 W9        29.78R
ABINGDON*      CLOUDY    23  11  59 W12G18    29.80R WCI  12
$$

MDZ021>025-VAZ099-100-100100-
SOUTHERN MARYLAND AND THE DELMARVA PENINSULA

CITY           SKY/WX    TMP DP  RH WIND       PRES   REMARKS
PATUXENT RIVER CLOUDY    36  33  89 SW5       29.64R
BAY BRIDGE APT   N/A     36  30  80 NW9       29.64R
LEONARDTOWN    CLOUDY    36  32  87 SW3       29.65R
DOVER          MIX PCPN  34  34 100 W6        29.60R
GEORGETOWN     CLOUDY    37  35  92 NW5       29.62R
EASTON         PTCLDY    36  36 100 CALM      29.66R
CAMBRIDGE      PTCLDY    34  32  93 CALM      29.62R
SALISBURY      PTCLDY    36  32  85 W6        29.63R
OCEAN CITY     CLOUDY    37  35  92 W3        29.62R
WALLOPS ISLAND CLOUDY    38  35  89 W13       29.65R
ACCOMACK*      CLOUDY    34  32  93 NW5       29.64F
$$

NCZ012>017-030>032-100100-
NORTH CENTRAL AND EASTERN NORTH CAROLINA

CITY           SKY/WX    TMP DP  RH WIND       PRES   REMARKS
ROANOKE RAPIDS FAIR      37  23  56 W8        29.72R
RALEIGH        CLOUDY    37  19  48 W8        29.76R
ELIZABETH CITY CLOUDY    39  32  76 W12       29.70R
AHOSKIE*       CLOUDY    39  24  53 NW6       29.71R
EDENTON*       CLOUDY    41  34  74 W9        29.71R
CURRITUCK*     CLOUDY    43  34  70 W12       29.68R
KILL DEVIL HLS CLOUDY    41  33  73 W14G23    29.68R
MANTEO         CLOUDY    40  34  78 W14G24    29.70R
CAPE HATTERAS  PTCLDY    45  29  53 W16G29    29.71R
TARBORO*       CLOUDY    40  26  56 W10G20    29.75R
GOLDSBORO      CLOUDY    41  21  45 W10       29.75R
WASHINGTON     CLOUDY    41  24  50 W14       29.73R
GREENVILLE     CLOUDY    41  23  48 W13G21    29.77R
NEW BERN       CLOUDY    43  24  47 W13G20    29.76R
WILMINGTON     PTCLDY    41  23  48 W18G29    29.81R
$$

VAZ048-100100-
ELSEWHERE

CITY           SKY/WX    TMP DP  RH WIND       PRES   REMARKS
HARRISBURG PA  LGT SNOW  32  29  88 CALM      29.61R VSB 3/4
BALTIMORE      MOCLDY    34  27  75 W10       29.63R
ANNAPOLIS      CLOUDY    36  29  75 NW8       29.64R
ANDREWS AFB    CLOUDY    35  27  73 NW13      29.62R
PHILADELPHIA   CLOUDY    34  31  88 E5        29.62R FOG
HENDERSON NC   CLOUDY    35  16  46 W8        29.73R
GREENSBORO     CLOUDY    30   8  39 W18G24    29.76R WCI  18
ROCKY MOUNT    CLOUDY    38  26  62 SW6       29.74R
$$

VAZ100-100100-
MARINE

STATION/POSITION TIME  TEMP    WIND        PRES    WAVE   SWELL
                       AIR SEA DIR/SP/G            HT/PER HT/PER
                 (UTC) (F)     (DEG/KT/KT) (MB)    (FT/S) (FT/S)
BRANDYWINE LGT   2300   38     110/ 12/ 14 1001.8R
CAPE MAY NJ      2300   38 43   80/  5/  7 1001.7R
LEWES DE         2342   37 41  180/  3/  4 1002.3R
15NM E FENWICK I 2350   38 43              1002.4R   7/14
OCEAN-CITY-INLET 2300   37 42  330/  3/  4 1001.4R
WACHAPREAGUE VA  2300   37 44  260/  8/ 13 1003.6R
THOMAS POINT MD  2300   37 39  310/ 12/ 13 1003.4R
GOOSES REEF MD   0000   38 40  320/ 12/ 14 1004.6R   1/ 3
COVE POINT MD    2300   38     330/  6/ 10 1003.4R
SOLOMONS ISLAND  2300   38 41  290/  6/  9   N/A
BISHOPS HEAD MD  2312   38 41  340/  3/  4 1002.1R
PINEY POINT MD   2300          300/  5/  6   N/A
POTOMAC MD       0000   37 41  330/  6/  8 1002.7R   1/ 3
CAMBRIDGE MD     2300   38 40  310/  7/ 11 1001.9R
LEWISETTA VA     2306   35 41  330/  7/  8 1003.2R
RAPPAHANNOCK LGT 2300          320/  6/  7 1003.2R
STINGRAY PT      0000   38 42  300/ 14/ 17 1004.1R   1
YORK RVR RNG VA  2300   41     340/  7/  8 1002.6R
YORKTOWN VA      2300   41 43  200/  1/  2 1002.8R
JAMESTOWN VA     0000   41 44  270/ 12/ 16   N/A     0
DOMINION TERM VA 2300   44     290/ 13/ 15 1003.0R
KIPTOPEKE VA     2300      44  350/ 13/ 19   N/A
CHES BAY BRIDGE  2300   44 44  230/ 14/ 19 1002.5R
CAPE HENRY VA    2300   44     250/  9/ 17   N/A
CHESAPEAKE LGHT  2300   44     290/ 15/ 16 1003.7R
WILLOUBY STN VA  2300   44     270/ 13/ 15   N/A
CAPE HENRY BUOY  2328      45                N/A     5/13   3/13
1ST LANDING BUOY 0000      43                N/A     3/ 5
CAPE CHARLES BUO 2326      44                N/A     6/14   5/14
OFFSHORE WE BUOY 2321      46                N/A     6/14   7/14
64NM E OF VA BCH 2350   46 50  250/ 19/ 27 1002.9R  10/13   8/13
DUCK PIER NC     2300   42     230/ 17/ 25 1003.6R
44100 DUCK FRF   2324      47                N/A     8/14   7/14
44056 DUCK FRF   2311      45                N/A     6/13   5/13
OREGON INLET NC  2300   42 45  280/  9/ 11 1004.4R
HATTERAS NC      2300   46 52  260/ 22/ 26 1004.4R
DIAMOND SHLS NC  2350   49 74  280/ 25/ 33 1005.2R  10C1F1C2F2C3F3C4F4C5F5C6F6C7F7C8M1C9!


USA.gov is the U.S. government's official web portal to all federal, state and local government web resources and services.